Location: Vancouver
(49.2500°N, 123.1330°W)
Time: 19:46:52
(UTC-08:00)

Transit 2A Rocket - Visible Passes

Search period start: 23 November 2014 00:00
Search period end: 03 December 2014 00:00
Orbit: 589 x 919 km, 66.7° (Epoch: 22 November)

Date Brightness Start Highest point End Pass type
(mag) Time Alt. Az. Time Alt. Az. Time Alt. Az.
23 Nov 5.2 18:24:11 10° NW 18:29:52 89° NE 18:35:28 12° SE visible
23 Nov 7.5 20:07:56 10° WNW 20:11:58 20° WSW 20:15:34 12° SSW visible
24 Nov 5.3 17:42:21 10° NNW 17:47:58 62° NE 17:53:55 10° SE visible
24 Nov 7.0 19:25:27 10° NW 19:30:24 30° WSW 19:35:33 10° S visible
25 Nov 5.6 17:00:36 10° NNW 17:05:57 44° NE 17:11:39 10° ESE visible
25 Nov 6.3 18:43:17 10° NW 18:48:44 46° WSW 18:54:28 10° S visible
26 Nov 5.6 18:01:17 10° NW 18:06:59 70° WSW 18:13:00 10° SSE visible
26 Nov 8.1 19:45:59 10° WNW 19:48:48 14° WSW 19:51:40 10° SW visible
27 Nov 5.2 17:19:24 10° NW 17:25:08 81° NE 17:31:12 10° SE visible
27 Nov 7.6 19:02:57 10° WNW 19:07:18 22° WSW 19:11:47 10° SSW visible
28 Nov 7.0 18:20:34 10° NW 18:25:43 34° WSW 18:31:04 10° S visible
29 Nov 6.3 17:38:27 10° NW 17:44:02 51° WSW 17:49:52 10° SSE visible
30 Nov 5.6 16:56:29 10° NW 17:02:15 77° WSW 17:08:19 10° SSE visible
30 Nov 8.3 18:40:48 10° WNW 18:44:09 16° WSW 18:47:34 10° SW visible
01 Dec 7.7 17:58:00 10° WNW 18:02:38 25° WSW 18:07:24 10° SSW visible
02 Dec 8.0 06:55:43 10° SSE 06:59:01 19° ESE 07:02:32 10° ENE visible
02 Dec 7.0 17:15:42 10° NW 17:21:01 38° WSW 17:26:32 10° S visible
